Weather History for KRDG - April, 2013

Change the Weather History Date:

Sunday, April 7, 2013

  Actual Average Record
Temperature  
Mean Temperature 53 °F 49 °F  
Max Temperature 64 °F 59 °F 89 °F (2010)
Min Temperature 41 °F 38 °F 16 °F (1982)
Degree Days  
Heating Degree Days 12 16  
Month to date heating degree days 147 121  
Since 1 July heating degree days 4634 4906  
Cooling Degree Days 0 0  
Month to date cooling degree days 0 0  
Year to date cooling degree days 0 0  
Growing Degree Days 2 (Base 50)    
Moisture  
Dew Point 34 °F    
Average Humidity 50    
Maximum Humidity 60    
Minimum Humidity 39    
Precipitation  
Precipitation 0.00 in 0.12 in 1.25 in (1971)
Month to date precipitation T 0.94  
Year to date precipitation 7.04 9.95  
Sea Level Pressure  
Sea Level Pressure 30.13 in    
Wind  
Wind Speed 9 mph (South)    
Max Wind Speed 23 mph    
Max Gust Speed 30 mph    
Visibility 10 miles    
Events      
T = Trace of Precipitation, MM = Missing Value Source: NWS Daily Summary

Daily Weather History Graph

Daily Weather History Graph

Search for Another Location

Airport or City:

Trip Planner

Search our weather history database for the weather conditions in past years. The results will help you decide how hot, cold, wet, or windy it might be!

Date:

Astronomy

Apr. 07, 2013 Rise Set
Actual Time 6:37 AM EDT 7:34 PM EDT
Civil Twilight 6:09 AM EDT 8:02 PM EDT
Nautical Twilight 5:36 AM EDT 8:35 PM EDT
Astronomical Twilight 5:02 AM EDT 9:10 PM EDT
Moon 4:54 AM EDT (4/7) 5:04 PM EDT (4/7)
Length of Visible Light 13h 52m
Length of Day
12h 57m
Waning Crescent, 8% of the Moon is Illuminated
Apr 7
Waning Crescent
Apr 10
New
Apr 18
First Quarter
Apr 25
Full
May 2
Last Quarter

Hourly Weather History & Observations

Time (EDT) Temp. Windchill Dew Point Humidity Pressure Visibility Wind Dir Wind Speed Gust Speed Precip Events Conditions
12:54 AM 44.1 °F 39.5 °F 21.9 °F 42% 30.28 in 10.0 mi SSE 8.1 mph - N/A   Clear
1:54 AM 42.1 °F 37.7 °F 27.0 °F 55% 30.27 in 10.0 mi SSE 6.9 mph - N/A   Clear
2:54 AM 41.0 °F 37.1 °F 28.0 °F 60% 30.26 in 10.0 mi SSE 5.8 mph - N/A   Clear
3:54 AM 41.0 °F - 27.0 °F 57% 30.25 in 10.0 mi Calm Calm - N/A   Partly Cloudy
4:54 AM 42.1 °F 39.2 °F 26.1 °F 53% 30.25 in 10.0 mi South 4.6 mph - N/A   Partly Cloudy
5:54 AM 42.1 °F 38.4 °F 21.9 °F 45% 30.25 in 10.0 mi SSE 5.8 mph - N/A   Partly Cloudy
6:54 AM 42.1 °F 38.4 °F 21.0 °F 43% 30.25 in 10.0 mi South 5.8 mph - N/A   Mostly Cloudy
7:54 AM 44.1 °F 40.1 °F 30.0 °F 58% 30.25 in 10.0 mi South 6.9 mph - N/A   Clear
8:54 AM 46.0 °F 41.0 °F 33.1 °F 61% 30.23 in 10.0 mi South 10.4 mph - N/A   Clear
9:54 AM 50.0 °F - 33.1 °F 52% 30.20 in 10.0 mi SSE 12.7 mph - N/A   Clear
10:54 AM 54.0 °F - 34.0 °F 47% 30.18 in 10.0 mi South 12.7 mph - N/A   Clear
11:54 AM 55.9 °F - 35.1 °F 45% 30.15 in 10.0 mi South 13.8 mph 24.2 mph N/A   Clear
12:54 PM 59.0 °F - 37.0 °F 44% 30.11 in 10.0 mi SSW 17.3 mph 26.5 mph N/A   Clear
1:54 PM 60.1 °F - 37.0 °F 42% 30.08 in 10.0 mi SSW 16.1 mph 27.6 mph N/A   Clear
2:54 PM 63.0 °F - 37.0 °F 38% 30.04 in 10.0 mi SSW 19.6 mph 25.3 mph N/A   Clear
3:54 PM 63.0 °F - 37.0 °F 38% 30.01 in 10.0 mi South 20.7 mph 27.6 mph N/A   Clear
4:54 PM 63.0 °F - 37.9 °F 40% 29.99 in 10.0 mi South 15.0 mph 20.7 mph N/A   Scattered Clouds
5:54 PM 62.1 °F - 39.0 °F 43% 30.00 in 10.0 mi South 10.4 mph 18.4 mph N/A   Clear
6:54 PM 61.0 °F - 39.0 °F 44% 30.00 in 10.0 mi SSE 5.8 mph - N/A   Clear
7:54 PM 60.1 °F - 39.0 °F 46% 30.01 in 10.0 mi South 5.8 mph - N/A   Mostly Cloudy
8:54 PM 59.0 °F - 39.9 °F 49% 30.01 in 10.0 mi SSE 6.9 mph - N/A   Mostly Cloudy
9:54 PM 59.0 °F - 41.0 °F 51% 30.01 in 10.0 mi South 6.9 mph - N/A   Overcast
10:54 PM 57.9 °F - 41.0 °F 53% 30.01 in 10.0 mi South 5.8 mph - N/A   Scattered Clouds
11:54 PM 57.9 °F - 42.1 °F 56% 30.00 in 10.0 mi Calm Calm - N/A   Partly Cloudy